Location: Taylor Dark Sky Site
(39.1017°N, 87.9564°W)
Time: 06:02:05
(UTC-05:00)

Amateur Radio Satellites - All Passes

Search period start: 07 July 2015 05:32
Search period end: 08 July 2015 05:32
Location: Taylor Dark Sky Site, 39.1017°N, 87.9564°W

Satellite Date Start Highest point End Downlink Frequencies (MHz)
Time Altitude Azimuth
AO-7 07 Jul 05:34:57 05:43:18 70° 291° (WNW) 05:51:32 29.400- 29.500
YUBILEINY 07 Jul 05:40:03 05:45:28 17° 300° (WNW) 05:50:23 435.215
CUBESAT XI-V 07 Jul 05:40:17 05:44:27 33° 71° (ENE) 05:48:42 437.345
VERMONT LUNAR 07 Jul 05:52:03 05:54:33 22° 151° (SSE) 05:57:04 437.305
BEESAT 3 07 Jul 05:56:32 05:59:48 24° 113° (ESE) 06:03:10 437.485
STRAND 1 07 Jul 06:08:25 06:12:30 25° 67° (ENE) 06:16:43 437.568
BEESAT 2 07 Jul 06:12:42 06:16:13 28° 114° (ESE) 06:19:48 435.950
PRISM 07 Jul 06:15:00 06:18:10 22° 69° (ENE) 06:21:28 437.425
CUTE-I 07 Jul 06:23:55 06:28:19 26° 94° (E) 06:32:47 437.470
CUSAT 1 07 Jul 06:34:56 06:38:38 17° 94° (E) 06:42:03 437.405
PHONESAT 2.4 07 Jul 06:52:57 06:54:48 14° 147° (SSE) 06:56:45 2401.200-2431.200
Cosmos 2504 07 Jul 06:57:19 07:03:34 35° 287° (WNW) 07:09:47 435.465 / 435.565
Cubesat XI-IV 07 Jul 06:58:27 07:03:43 56° 100° (E) 07:08:59 437.490
O/OREOS (USA 219) 07 Jul 07:01:20 07:05:46 74° 110° (ESE) 07:10:14 437.305
ISS 07 Jul 07:17:57 07:21:11 88° 311° (NW) 07:24:27 145.825
CUBESAT XI-V 07 Jul 07:18:07 07:21:57 24° 267° (W) 07:25:42 437.345
RS-15 07 Jul 07:19:31 07:26:42 18° 6° (N) 07:34:13 29.354- 29.394
VERMONT LUNAR 07 Jul 07:28:06 07:31:12 87° 175° (S) 07:34:20 437.305
AO-7 07 Jul 07:30:09 07:34:47 16° 310° (NW) 07:38:58 29.400- 29.500
BEESAT 3 07 Jul 07:34:03 07:37:40 29° 309° (NW) 07:41:16 437.485
STRAND 1 07 Jul 07:46:45 07:51:32 38° 263° (W) 07:56:19 437.568
PRISM 07 Jul 07:49:49 07:53:29 29° 264° (W) 07:57:08 437.425
AIST 2 07 Jul 07:50:21 07:54:36 81° 121° (ESE) 07:58:54 435.215
BEESAT 2 07 Jul 07:50:46 07:54:16 26° 311° (NW) 07:57:45 435.950
DANDE 07 Jul 07:56:42 08:03:48 76° 99° (E) 08:09:10 436.750
CUTE-I 07 Jul 08:03:34 08:08:30 38° 290° (WNW) 08:13:21 437.470
AUBIESAT-1 07 Jul 08:08:54 08:11:51 30° 67° (ENE) 08:14:58 437.475
CUSAT 1 07 Jul 08:15:05 08:21:13 53° 280° (W) 08:25:51 437.405
GONETS M04 07 Jul 08:15:53 08:23:44 40° 88° (E) 08:31:41
BRITE-PL 07 Jul 08:20:54 08:24:50 37° 97° (E) 08:28:41 437.365/2234.400
PHONESAT 2.4 07 Jul 08:29:02 08:32:24 59° 161° (SSE) 08:35:48 2401.200-2431.200
HO-68 07 Jul 08:30:49 08:36:26 25° 93° (E) 08:42:16 435.675
Cubesat XI-IV 07 Jul 08:39:41 08:43:26 19° 296° (WNW) 08:46:58 437.490
COMPASS 1 07 Jul 08:41:11 08:42:49 12° 89° (E) 08:44:40 437.405
O/OREOS (USA 219) 07 Jul 08:44:09 08:45:49 12° 309° (NW) 08:47:16 437.305
M-CUBED/EXP-1 PRIME 07 Jul 08:45:51 08:49:08 65° 254° (WSW) 08:52:35 437.505
ISS 07 Jul 08:55:50 08:58:00 16° 339° (NNW) 09:00:07 145.825
CUTE 1.7 + AOD 2 07 Jul 08:59:30 09:03:21 32° 96° (E) 09:07:15 437.475
CANX-2 07 Jul 09:03:13 09:07:16 40° 98° (E) 09:11:20 2200.000
VERMONT LUNAR 07 Jul 09:05:06 09:08:12 65° 3° (N) 09:11:19 437.305
GOMX 1 07 Jul 09:18:27 09:22:38 79° 283° (WNW) 09:26:46 467.674
UNISAT 6 07 Jul 09:29:26 09:31:32 14° 66° (ENE) 09:33:50 437.425
AIST 2 07 Jul 09:31:45 09:33:47 13° 319° (NW) 09:35:40 435.215
RS-15 07 Jul 09:33:29 09:43:55 37° 39° (NE) 09:54:57 29.354- 29.394
DELFI C3 07 Jul 09:41:11 09:43:27 15° 91° (E) 09:45:53 145.870
SEEDS 07 Jul 09:42:29 09:46:47 84° 102° (ESE) 09:51:03 437.485
DANDE 07 Jul 09:43:24 09:47:08 15° 289° (WNW) 09:50:08 436.750
AUBIESAT-1 07 Jul 09:45:07 09:46:50 13° 264° (W) 09:48:25 437.475
AAUSAT CUBESAT 2 07 Jul 09:45:45 09:49:56 60° 100° (E) 09:54:06 437.432
UWE-3 07 Jul 09:46:04 09:49:09 20° 93° (E) 09:52:23 435.000/436.395/437.385
DOVE 4 07 Jul 09:47:25 09:51:31 60° 285° (WNW) 09:55:39 437.250
DUCHIFAT 1 07 Jul 09:57:55 09:58:54 11° 65° (ENE) 10:00:07 145.980
BRITE-PL 07 Jul 10:00:24 10:03:07 16° 293° (WNW) 10:05:38 437.365/2234.400
POLYITAN 1 07 Jul 10:05:46 10:08:00 15° 67° (ENE) 10:10:24 437.675
PHONESAT 2.4 07 Jul 10:07:01 10:10:26 68° 357° (N) 10:13:53 2401.200-2431.200
CINEMA 3 07 Jul 10:09:59 10:14:11 78° 284° (WNW) 10:18:29 145.822/145.860
Cosmos 2499 07 Jul 10:10:10 10:16:35 41° 89° (E) 10:23:12 435.465 / 435.565
ANTELSAT 07 Jul 10:11:55 10:15:54 40° 73° (ENE) 10:19:55 437.575/2403.000
GONETS M04 07 Jul 10:12:15 10:20:32 43° 286° (WNW) 10:28:43
COMPASS 1 07 Jul 10:14:43 10:18:51 51° 285° (WNW) 10:22:57 437.405
HO-68 07 Jul 10:17:37 10:24:37 58° 290° (WNW) 10:31:35 435.675
HUMSAT D 07 Jul 10:20:03 10:22:21 15° 91° (E) 10:24:51 437.325/437.525
TIGRISAT 07 Jul 10:22:40 10:26:48 52° 74° (ENE) 10:30:57 435.000
ZACube-1 07 Jul 10:25:46 10:29:48 42° 98° (E) 10:33:57 437.345
UKube-1 07 Jul 10:27:08 10:28:53 13° 90° (E) 10:30:53 .
Oscar 11 07 Jul 10:27:25 10:31:47 79° 102° (ESE) 10:36:09 145.826/435.025
POPSAT HIP 1 07 Jul 10:33:18 10:36:54 28° 71° (ENE) 10:40:34 437.405
QB50P2 07 Jul 10:33:22 10:37:02 29° 71° (ENE) 10:40:43 145.880/145.840
CUTE 1.7 + AOD 2 07 Jul 10:35:51 10:39:06 21° 291° (WNW) 10:42:14 437.475
CUBEBUG 2 07 Jul 10:37:11 10:41:27 83° 283° (WNW) 10:45:48 437.445
CANX-2 07 Jul 10:40:02 10:42:55 17° 292° (WNW) 10:45:38 2200.000
VERMONT LUNAR 07 Jul 10:42:02 10:45:06 56° 200° (SSW) 10:48:11 437.305
FUNcube-1 07 Jul 11:00:21 11:04:36 77° 284° (WNW) 11:08:56 145.935
AISAT 07 Jul 11:00:41 11:03:47 19° 93° (E) 11:07:01 437.250
50 SAT 07 Jul 11:01:10 11:04:06 20° 94° (E) 11:07:08 437.505
UNISAT 6 07 Jul 11:03:48 11:07:58 49° 261° (W) 11:12:07 437.425
CUBEBUG 1 07 Jul 11:09:36 11:11:14 12° 89° (E) 11:13:07 437.445
QB50P1 07 Jul 11:11:15 11:15:30 79° 76° (ENE) 11:19:44 145.935-145.965
DELFI C3 07 Jul 11:14:56 11:18:45 39° 287° (WNW) 11:22:33 145.870
UWE-3 07 Jul 11:21:56 11:25:46 33° 288° (WNW) 11:29:37 435.000/436.395/437.385
AAUSAT CUBESAT 2 07 Jul 11:23:31 11:25:05 12° 294° (WNW) 11:26:25 437.432
NANOSAT C BR1 07 Jul 11:24:12 11:28:25 74° 258° (WSW) 11:32:39 145.865
DUCHIFAT 1 07 Jul 11:30:02 11:34:14 65° 259° (W) 11:38:26 145.980
BUGSAT 1 07 Jul 11:32:34 11:36:48 88° 78° (ENE) 11:41:01 437.445
POLYITAN 1 07 Jul 11:39:28 11:43:33 47° 261° (W) 11:47:39 437.675
ESTCUBE 1 07 Jul 11:43:35 11:47:48 37° 97° (E) 11:51:59 437.505/2401.250
PHONESAT 2.4 07 Jul 11:45:05 11:48:33 85° 194° (SSW) 11:52:00 2401.200-2431.200
DX 1 07 Jul 11:45:08 11:49:29 74° 285° (WNW) 11:53:47 434.975-435.025
RS-15 07 Jul 11:45:48 11:57:33 75° 243° (WSW) 12:09:40 29.354- 29.394
VELOX 1 07 Jul 11:47:58 11:52:21 63° 101° (E) 11:56:43 145.980
ANTELSAT 07 Jul 11:50:16 11:52:56 16° 269° (W) 11:55:25 437.575/2403.000
HUMSAT D 07 Jul 11:54:22 11:58:20 42° 287° (WNW) 12:02:18 437.325/437.525
SPROUT 07 Jul 11:59:09 12:00:47 12° 89° (E) 12:02:38 437.525
UKube-1 07 Jul 12:01:11 12:05:25 52° 286° (WNW) 12:09:36 .
TIGRISAT 07 Jul 12:02:09 12:03:57 12° 270° (W) 12:05:31 435.000
ZACube-1 07 Jul 12:03:13 12:05:53 16° 292° (WNW) 12:08:27 437.345
Cosmos 2499 07 Jul 12:03:39 12:09:53 32° 289° (WNW) 12:16:06 435.465 / 435.565
POPSAT HIP 1 07 Jul 12:09:23 12:12:47 22° 266° (W) 12:16:05 437.405
QB50P2 07 Jul 12:09:36 12:12:57 22° 266° (W) 12:16:11 145.880/145.840
HO-68 07 Jul 12:09:48 12:11:04 10° 308° (NW) 12:11:50 435.675
ISS 07 Jul 12:10:56 12:12:57 15° 19° (NNE) 12:15:00 145.825
VERMONT LUNAR 07 Jul 12:20:09 12:21:37 12° 213° (SSW) 12:22:59 437.305
TISAT 1 07 Jul 12:27:06 12:29:40 16° 92° (E) 12:32:22 437.305
50 SAT 07 Jul 12:35:24 12:38:43 26° 289° (WNW) 12:42:00 437.505
AISAT 07 Jul 12:36:28 12:40:31 35° 289° (WNW) 12:44:29 437.250
CUBEBUG 1 07 Jul 12:43:45 12:48:01 54° 286° (WNW) 12:52:13 437.445
Oscar 19 07 Jul 12:46:21 12:50:49 32° 69° (ENE) 12:55:20 437.125/150
ITAMSAT 1 07 Jul 13:07:13 13:09:51 15° 63° (ENE) 13:12:43 435.822/435.867
Gurwin Techsat 1B 07 Jul 13:19:06 13:22:45 20° 65° (ENE) 13:26:35 435.225
ESTCUBE 1 07 Jul 13:21:03 13:24:26 20° 292° (WNW) 13:27:40 437.505/2401.250
PHONESAT 2.4 07 Jul 13:23:27 13:26:19 24° 209° (SSW) 13:29:10 2401.200-2431.200
VELOX 1 07 Jul 13:26:38 13:28:25 12° 296° (WNW) 13:30:00 145.980
SPROUT 07 Jul 13:33:05 13:37:15 52° 286° (WNW) 13:41:23 437.525
ISS 07 Jul 13:46:33 13:49:48 79° 38° (NE) 13:53:01 145.825
PCSat 07 Jul 13:50:00 13:52:23 13° 105° (ESE) 13:55:07 145.827
YUBILEINY 07 Jul 13:50:05 13:58:22 45° 74° (ENE) 14:06:44 435.215
RS-15 07 Jul 14:01:42 14:08:30 16° 260° (W) 14:14:19 29.354- 29.394
TISAT 1 07 Jul 14:01:44 14:05:38 37° 288° (WNW) 14:09:28 437.305
Cosmos 2491 07 Jul 14:11:57 14:19:17 32° 86° (E) 14:26:50 435.465 / 435.565
BEESAT 3 07 Jul 14:16:38 14:18:35 13° 42° (NE) 14:20:40 437.485
BEESAT 07 Jul 14:22:49 14:27:29 50° 100° (E) 14:32:08 436.000
Oscar 19 07 Jul 14:25:43 14:30:10 29° 265° (W) 14:34:34 437.125/150
BEESAT 2 07 Jul 14:33:17 14:35:42 15° 44° (NE) 14:38:12 435.950
SWISSCUBE 07 Jul 14:38:51 14:43:41 82° 103° (ESE) 14:48:29 437.505
AO-7 07 Jul 14:41:15 14:48:15 32° 60° (ENE) 14:55:28 29.400- 29.500
ITAMSAT 1 07 Jul 14:43:35 14:48:48 72° 257° (WSW) 14:54:04 435.822/435.867
HORYU 2 07 Jul 14:43:43 14:46:07 15° 66° (ENE) 14:48:42 437.375
KKS-1 07 Jul 14:44:49 14:46:48 13° 90° (E) 14:49:01 437.445
ITUPSAT 1 07 Jul 14:45:49 14:50:41 86° 107° (ESE) 14:55:28 437.325
Gurwin Techsat 1B 07 Jul 14:57:12 15:02:22 52° 260° (W) 15:07:34 435.225
AIST 1 07 Jul 15:09:05 15:13:16 46° 93° (E) 15:17:31
JAS-2 07 Jul 15:21:31 15:26:38 67° 74° (ENE) 15:32:05 435.910
STARS 07 Jul 15:27:13 15:30:43 23° 95° (E) 15:34:16 437.465
PCSat 07 Jul 15:29:50 15:35:14 75° 299° (WNW) 15:40:42 145.827
O/OREOS (USA 219) 07 Jul 15:35:03 15:36:52 12° 52° (NE) 15:38:54 437.305
SO-50 07 Jul 15:37:41 15:41:57 36° 115° (ESE) 15:46:25 436.795
YUBILEINY 07 Jul 15:47:11 15:55:05 38° 273° (W) 16:02:49 435.215
BEESAT 3 07 Jul 15:53:00 15:57:02 68° 241° (WSW) 16:01:00 437.485
BEESAT 07 Jul 16:01:47 16:04:58 17° 295° (WNW) 16:07:58 436.000
Cosmos 2491 07 Jul 16:07:13 16:15:49 53° 284° (WNW) 16:24:22 435.465 / 435.565
BEESAT 2 07 Jul 16:10:08 16:14:09 56° 242° (WSW) 16:18:04 435.950
AIST 2 07 Jul 16:13:20 16:17:15 36° 52° (NE) 16:21:07 435.215
HORYU 2 07 Jul 16:18:06 16:22:23 50° 260° (W) 16:26:42 437.375
SWISSCUBE 07 Jul 16:19:27 16:20:56 11° 298° (WNW) 16:22:09 437.505
KKS-1 07 Jul 16:19:30 16:23:49 52° 287° (WNW) 16:28:07 437.445
ITUPSAT 1 07 Jul 16:26:50 16:27:56 11° 298° (WNW) 16:28:44 437.325
AO-7 07 Jul 16:32:29 16:40:41 58° 258° (WSW) 16:48:55 29.400- 29.500
Cosmos 2504 07 Jul 16:42:20 16:49:54 64° 80° (E) 16:58:01 435.465 / 435.565
Cubesat XI-IV 07 Jul 16:44:15 16:45:16 11° 60° (ENE) 16:46:37 437.490
AIST 1 07 Jul 16:48:44 16:51:16 14° 291° (WNW) 16:53:36
MOZHAYETS 4 07 Jul 17:01:27 17:05:54 44° 98° (E) 17:10:20
STARS 07 Jul 17:03:21 17:07:10 29° 290° (WNW) 17:10:54 437.465
JUGNU 07 Jul 17:03:36 17:05:20 11° 181° (S) 17:07:03 437.505
JAS-2 07 Jul 17:10:15 17:12:36 12° 274° (W) 17:14:39 435.910
O/OREOS (USA 219) 07 Jul 17:12:21 17:16:53 70° 251° (WSW) 17:21:24 437.305
PCSat 07 Jul 17:17:10 17:19:42 13° 320° (NW) 17:22:01 145.827
SO-50 07 Jul 17:18:28 17:22:36 28° 313° (NW) 17:26:46 436.795
CUTE-I 07 Jul 17:44:29 17:49:24 39° 70° (ENE) 17:54:24 437.470
AIST 2 07 Jul 17:52:31 17:55:35 19° 248° (WSW) 17:58:30 435.215
SRMSAT 07 Jul 18:02:40 18:04:05 11° 176° (S) 18:05:32 437.500
Cubesat XI-IV 07 Jul 18:19:15 18:24:37 82° 76° (ENE) 18:30:03 437.490
GONETS M04 07 Jul 18:28:20 18:33:32 18° 61° (ENE) 18:39:13
Cosmos 2504 07 Jul 18:35:43 18:41:39 24° 275° (W) 18:47:34 435.465 / 435.565
MOZHAYETS 4 07 Jul 18:39:34 18:42:48 18° 293° (WNW) 18:45:54
DANDE 07 Jul 18:40:40 18:42:57 25° 75° (ENE) 18:45:13 436.750
GOMX 1 07 Jul 18:51:16 18:52:07 11° 65° (ENE) 18:53:16 467.674
CUSAT 1 07 Jul 18:53:55 18:56:30 81° 260° (W) 18:59:15 437.405
HO-68 07 Jul 18:59:58 19:04:21 18° 58° (ENE) 19:09:03 435.675
CUBESAT XI-V 07 Jul 19:14:49 19:19:32 86° 283° (WNW) 19:24:11 437.345
DOVE 4 07 Jul 19:17:24 19:18:49 11° 66° (ENE) 19:20:27 437.250
CUTE-I 07 Jul 19:25:09 19:29:37 25° 266° (W) 19:33:58 437.470
BRITE-PL 07 Jul 19:29:35 19:34:41 45° 74° (ENE) 19:39:31 437.365/2234.400
PRISM 07 Jul 19:32:41 19:36:38 40° 98° (E) 19:40:34 437.425
CUTE 1.7 + AOD 2 07 Jul 19:51:54 19:54:59 21° 69° (ENE) 19:58:12 437.475
SRMSAT 07 Jul 19:52:11 19:52:21 10° 187° (S) 19:52:29 437.500
CANX-2 07 Jul 19:55:28 19:58:52 25° 70° (ENE) 20:02:24 2200.000
STRAND 1 07 Jul 19:57:56 20:03:07 80° 104° (ESE) 20:08:14 437.568
Cosmos 2499 07 Jul 20:02:49 20:06:29 14° 61° (ENE) 20:10:53 435.465 / 435.565
Cubesat XI-IV 07 Jul 20:03:41 20:05:30 11° 273° (W) 20:06:56 437.490
GONETS M04 07 Jul 20:23:07 20:31:51 90° 83° (E) 20:40:33
GOMX 1 07 Jul 20:24:40 20:29:47 85° 258° (WSW) 20:34:34 467.674
M-CUBED/EXP-1 PRIME 07 Jul 20:29:48 20:30:13 10° 94° (E) 20:30:57 437.505
SEEDS 07 Jul 20:33:17 20:37:18 48° 74° (ENE) 20:41:22 437.485
AAUSAT CUBESAT 2 07 Jul 20:35:29 20:39:12 34° 72° (ENE) 20:42:59 437.432
UWE-3 07 Jul 20:43:24 20:45:35 14° 67° (ENE) 20:47:57 435.000/436.395/437.385
HO-68 07 Jul 20:44:08 20:51:18 86° 253° (WSW) 20:58:30 435.675
DOVE 4 07 Jul 20:51:21 20:56:10 72° 259° (WSW) 21:00:42 437.250
COMPASS 1 07 Jul 21:04:20 21:08:29 90° 179° (S) 21:12:41 437.405
PRISM 07 Jul 21:09:04 21:11:46 17° 293° (WNW) 21:14:20 437.425
BRITE-PL 07 Jul 21:09:17 21:13:22 21° 267° (W) 21:17:08 437.365/2234.400
CINEMA 3 07 Jul 21:10:27 21:14:55 83° 79° (ENE) 21:19:13 145.822/145.860
Oscar 11 07 Jul 21:20:57 21:25:05 51° 74° (ENE) 21:29:18 145.826/435.025
ZACube-1 07 Jul 21:21:05 21:24:39 29° 71° (ENE) 21:28:16 437.345
UKube-1 07 Jul 21:22:33 21:23:11 10° 63° (ENE) 21:24:05 .
AUBIESAT-1 07 Jul 21:23:25 21:27:28 36° 103° (ESE) 21:31:45 437.475
CUTE 1.7 + AOD 2 07 Jul 21:26:59 21:30:44 31° 264° (W) 21:34:29 437.475
CANX-2 07 Jul 21:31:14 21:34:45 25° 266° (W) 21:38:13 2200.000
CUBEBUG 2 07 Jul 21:34:17 21:38:32 71° 77° (ENE) 21:42:43 437.445
STRAND 1 07 Jul 21:39:26 21:41:42 13° 298° (WNW) 21:43:42 437.568
50 SAT 07 Jul 21:46:42 21:47:12 10° 66° (ENE) 21:47:55 437.505
Cosmos 2499 07 Jul 21:53:04 22:01:05 78° 81° (E) 22:09:42 435.465 / 435.565
FUNcube-1 07 Jul 21:54:55 21:59:04 71° 76° (ENE) 22:03:12 145.935
AISAT 07 Jul 21:57:59 22:00:43 17° 66° (ENE) 22:03:35 437.250
DELFI C3 07 Jul 22:00:26 22:04:26 78° 258° (WSW) 22:08:29 145.870
M-CUBED/EXP-1 PRIME 07 Jul 22:01:04 22:05:26 75° 288° (WNW) 22:10:03 437.505
CUBEBUG 1 07 Jul 22:06:32 22:06:52 10° 64° (ENE) 22:07:30 437.445
SEEDS 07 Jul 22:11:29 22:13:26 13° 271° (W) 22:15:11 437.485
AAUSAT CUBESAT 2 07 Jul 22:12:03 22:14:56 18° 268° (W) 22:17:43 437.432
TIGRISAT 07 Jul 22:17:12 22:18:45 12° 89° (E) 22:20:35 435.000
UWE-3 07 Jul 22:17:45 22:21:49 45° 261° (W) 22:25:50 435.000/436.395/437.385
GONETS M04 07 Jul 22:22:29 22:27:38 17° 280° (W) 22:32:15
HO-68 07 Jul 22:36:39 22:40:10 13° 273° (W) 22:43:10 435.675
PCSat 07 Jul 22:37:51 22:39:44 12° 39° (NE) 22:41:50 145.827
DX 1 07 Jul 22:39:15 22:43:38 83° 76° (ENE) 22:48:02 434.975-435.025
ESTCUBE 1 07 Jul 22:42:14 22:46:10 30° 70° (ENE) 22:50:11 437.505/2401.250
VELOX 1 07 Jul 22:44:14 22:48:32 49° 73° (ENE) 22:52:52 145.980
HUMSAT D 07 Jul 22:44:36 22:48:41 71° 258° (WSW) 22:52:46 437.325/437.525
UKube-1 07 Jul 22:54:27 22:58:47 73° 257° (WSW) 23:03:09 .
UNISAT 6 07 Jul 22:56:31 23:00:35 35° 97° (E) 23:04:44 437.425
ZACube-1 07 Jul 22:57:49 23:01:04 21° 266° (W) 23:04:11 437.345
AUBIESAT-1 07 Jul 22:58:35 23:02:01 22° 295° (WNW) 23:05:29 437.475
QB50P1 07 Jul 22:59:07 23:01:09 14° 90° (E) 23:03:24 145.935-145.965
Oscar 11 07 Jul 22:59:38 23:01:39 13° 271° (W) 23:03:27 145.826/435.025
NANOSAT C BR1 07 Jul 23:11:05 23:13:59 19° 93° (E) 23:17:02 145.865
DUCHIFAT 1 07 Jul 23:16:30 23:19:39 21° 94° (E) 23:22:53 145.980
50 SAT 07 Jul 23:17:38 23:21:23 54° 260° (W) 23:25:10 437.505
BUGSAT 1 07 Jul 23:17:44 23:19:32 13° 90° (E) 23:21:33 437.445
TISAT 1 07 Jul 23:19:38 23:21:01 12° 65° (ENE) 23:22:38 437.305
POLYITAN 1 07 Jul 23:26:07 23:29:45 29° 96° (E) 23:33:27 437.675
AISAT 07 Jul 23:32:40 23:36:58 45° 261° (W) 23:41:16 437.250
CUBEBUG 1 07 Jul 23:38:14 23:42:41 77° 258° (WSW) 23:47:07 437.445
ANTELSAT 07 Jul 23:40:52 23:45:19 74° 283° (WNW) 23:49:49 437.575/2403.000
Cosmos 2499 07 Jul 23:47:59 23:53:37 20° 276° (W) 23:59:02 435.465 / 435.565
TIGRISAT 07 Jul 23:51:34 23:55:55 58° 285° (WNW) 00:00:20 435.000
POPSAT HIP 1 07 Jul 23:54:32 23:58:42 61° 100° (E) 00:02:52 437.405
QB50P2 07 Jul 23:54:48 23:59:01 64° 101° (ESE) 00:03:12 145.880/145.840
RS-15 08 Jul 00:01:07 00:07:10 18° 101° (E) 00:14:05 29.354- 29.394
SO-50 08 Jul 00:10:10 00:14:24 28° 47° (NE) 00:18:38 436.795
PCSat 08 Jul 00:18:52 00:24:17 68° 59° (ENE) 00:29:40 145.827
ESTCUBE 1 08 Jul 00:19:20 00:23:04 24° 266° (W) 00:26:42 437.505/2401.250
VELOX 1 08 Jul 00:22:52 00:25:25 14° 269° (W) 00:27:45 145.980
Cosmos 2491 08 Jul 00:24:49 00:28:38 14° 57° (ENE) 00:33:06 435.465 / 435.565
SPROUT 08 Jul 00:25:39 00:29:57 81° 256° (WSW) 00:34:17 437.525
QB50P1 08 Jul 00:33:17 00:37:19 45° 287° (WNW) 00:41:19 145.935-145.965
UNISAT 6 08 Jul 00:33:49 00:37:10 21° 291° (WNW) 00:40:28 437.425
NANOSAT C BR1 08 Jul 00:46:09 00:49:56 33° 289° (WNW) 00:53:41 145.865
BUGSAT 1 08 Jul 00:51:28 00:55:19 43° 287° (WNW) 00:59:07 437.445
DUCHIFAT 1 08 Jul 00:51:49 00:55:30 29° 289° (WNW) 00:59:06 145.980
TISAT 1 08 Jul 00:52:09 00:56:20 60° 259° (W) 01:00:31 437.305
Oscar 19 08 Jul 01:01:05 01:02:32 11° 88° (E) 01:04:21 437.125/150
POLYITAN 1 08 Jul 01:02:13 01:05:33 22° 291° (WNW) 01:08:45 437.675
AIST 1 08 Jul 01:20:05 01:20:50 10° 67° (ENE) 01:21:51
BEESAT 08 Jul 01:28:05 01:32:41 50° 72° (ENE) 01:37:20 436.000
POPSAT HIP 1 08 Jul 01:32:41 01:34:07 11° 295° (WNW) 01:35:20 437.405
QB50P2 08 Jul 01:33:12 01:34:25 11° 295° (WNW) 01:35:24 145.880/145.840
KKS-1 08 Jul 01:43:03 01:44:29 12° 64° (ENE) 01:46:08 437.445
SWISSCUBE 08 Jul 01:44:06 01:48:53 82° 75° (ENE) 01:53:42 437.505
SO-50 08 Jul 01:50:28 01:55:04 38° 245° (WSW) 01:59:31 436.795
ITUPSAT 1 08 Jul 01:51:19 01:56:07 87° 75° (ENE) 02:00:57 437.325
PCSat 08 Jul 02:04:02 02:07:11 15° 255° (WSW) 02:10:03 145.827
RS-15 08 Jul 02:07:09 02:18:02 84° 119° (ESE) 02:29:18 29.354- 29.394
Cosmos 2491 08 Jul 02:18:41 02:27:27 75° 81° (E) 02:36:08 435.465 / 435.565
STARS 08 Jul 02:23:35 02:26:37 19° 68° (ENE) 02:29:48 437.465
JAS-2 08 Jul 02:33:48 02:35:13 11° 85° (E) 02:37:19 435.910
Oscar 19 08 Jul 02:37:26 02:42:34 76° 286° (WNW) 02:47:42 437.125/150
YUBILEINY 08 Jul 02:49:22 02:57:40 54° 91° (E) 03:06:03 435.215
AIST 1 08 Jul 02:54:44 02:59:03 61° 265° (W) 03:03:17
ITAMSAT 1 08 Jul 02:57:45 03:02:43 44° 98° (E) 03:07:42 435.822/435.867
BEESAT 08 Jul 03:07:54 03:10:53 16° 269° (W) 03:13:41 436.000
Gurwin Techsat 1B 08 Jul 03:14:21 03:19:40 70° 101° (ESE) 03:24:58 435.225
KKS-1 08 Jul 03:16:11 03:20:37 67° 259° (W) 03:25:03 437.445
STARS 08 Jul 03:58:45 04:02:50 37° 262° (W) 04:06:54 437.465
MOZHAYETS 4 08 Jul 04:02:19 04:06:28 36° 72° (ENE) 04:10:43
HORYU 2 08 Jul 04:10:26 04:14:27 32° 97° (E) 04:18:30 437.375
JAS-2 08 Jul 04:14:25 04:21:18 72° 102° (ESE) 04:28:55 435.910
Cosmos 2491 08 Jul 04:17:14 04:23:30 21° 278° (W) 04:29:20 435.465 / 435.565
RS-15 08 Jul 04:22:21 04:31:58 32° 326° (NW) 04:41:42 29.354- 29.394
AO-7 08 Jul 04:35:12 04:43:20 54° 101° (ESE) 04:51:26 29.400- 29.500
ITAMSAT 1 08 Jul 04:37:58 04:41:58 22° 294° (WNW) 04:45:49 435.822/435.867
YUBILEINY 08 Jul 04:47:19 04:54:56 32° 291° (WNW) 05:02:22 435.215
VERMONT LUNAR 08 Jul 04:53:14 04:54:48 13° 147° (SSE) 04:56:26 437.305
Gurwin Techsat 1B 08 Jul 04:56:02 04:59:07 15° 297° (WNW) 05:01:59 435.225
Cosmos 2504 08 Jul 05:12:20 05:18:49 46° 91° (E) 05:25:24 435.465 / 435.565
